STARLINK-35847, 66621

Orbit data source: Space-Track

STARLINK-35847, 66621 is a payload satellite owned by SpaceX/Seattle (US) in LEO that was launched on Sun, 23 Nov 2025 UTC via an FALCON 9 launch vehicle from the Air Force Western Test Range (AFWTR). Payload-class satellites include a variety of spacecraft equipped with specific instruments for various scientific and technological missions. These include communications satellites like Starlink; space stations such as the ISS; scientific satellites like the Hubble; Earth observation satellites from companies like Planet Labs, Umbra, and HawkEye 360; GPS; miniature CubeSats for education and research; and military/defense satellites.

Loading next visibility...
Identifier
66621, 2025-271E
Orbit
LEO
Country
Flag of USUS
Related business
Manufacturer
SpaceX/Seattle
Mission
Operational Commercial Communications
Bus & Motor
STARLINK V2MO, Unknown motor
Mass
575 kg wet, ~530 kg dry
Launch date (UTC)
2025-11-23 (5 months ago)
Launch vehicle
FALCON 9
Launch site
Air Force Western Test Range (AFWTR)
Object type
Payload
Rocket body
Debris
Shape & HBR
Box + 2 Pan, 17.7 m
Radar Cross Section
36.964 m²

Expand to show TLE details & history
Last TLE update: 1 day ago

TLE from 1 day ago
0 STARLINK-35847
1 66621U 25271E   26127.53690293  .00053405  00000-0  17968-2 0  9993
2 66621  53.1595 226.7838 0001453  71.0589 289.0569 15.30299028 26578
Epoch: 2026-05-07T12:53Z
TLE epoch observation values (Epoch: 2026-05-07T12:53:08.413Z)
Latitude
-0.00002°
Longitude
168.11711°
Altitude
475.494 km
Speed
7.629 km/s
True Right ascension
15h 07m 08s
True Declination
0° 00' 00"
Sunlit
Object was in full shadow at epoch
Visualization orbit readout
Latitude
Unknown
Longitude
Unknown
Altitude
Unknown
Speed
Unknown
Apparent Right ascension
Unknown
Apparent Declination
Unknown
Sunlit
N/A
Visualization observer readout
Local Sidereal Time
21:45:53
Azimuth
Unknown
Elevation
Unknown
Doppler factor
Unknown
Orbital elements
Apogee altitude
476.172 km
Perigee altitude
474.18 km
Semi-major axis
6,853.313 km
Eccentricity
0.00015
Inclination
53.1595°
RAAN
226.7838°
Arg. of periapsis
71.0589°
True anomaly
289.04116°
Mean anomaly
289.0569°
Eccentric anomaly
289.04903°
Mean motion
3.82554 °/min
Orbital period
94.1 mins
BSTAR
0.0017968
Loading maneuver chart data...
Computing Atmospheric mass density...
Loading historical data...
Loading historical data...
Loading historical data...
Loading historical data...
Loading historical data...
Loading historical data...
Loading historical data...

Documentation

Showing up to 5 results
|